Terminal Aerodrome Forecast
Issued by NWS Boston, MA

Current Version | Previous Version | Text Only | Print | Product List | Glossary On
Versions: 1 2 3 4 5 6 7 8 9 10 11 12 13 14 15 16 17 18 19 20 21 22 23 24 25 26 27 28 29 30 31 32 33 34 35 36 37 38 39 40 41 42 43 44 45 46 47 48 49 50
000
FTUS41 KBOX 031455 AAA
TAFBOS
TAF AMD
KBOS 031455Z 0315/0418 15006KT P6SM SKC
     FM031800 12008KT P6SM FEW050 SCT120
     FM032100 14008KT P6SM BKN080
     FM040000 20007KT P6SM SCT110=

USA.gov is the U.S. government's official web portal to all federal, state and local government web resources and services.